Voltar ao catálogo

SL-8 DEB *

AtivoLEO
NORAD 3045·DEBRIS·🇷🇺 Russia

Lançado Sep 3, 1965 de Baikonur Cosmodrome

Loading…

Próximas Passagens (próximas 24 horas)

TLE

AtualizadoSource: Space-Track

Época: Sep 14, 2026, 07:47 UTC

1 03045U 65070G   26257.32462231  .00000563  00000-0  39835-2 0  9999
2 03045  55.4327 358.3662 0290916 291.4329 101.4517 12.44648405700037

Acompanhe SL-8 DEB * em tempo real com AllMySat

Download on the App Store